timestamp,wind_dir_avg,wind_spd_avg,wind_spd_max_dir,wind_spd_gust,battery_voltage,lat,long
2022-09-25 00:04:00+00:00,205.0,12.62,199.0,15.96,12.57,47.59359,-54.27349
2022-09-25 00:14:00+00:00,205.0,14.54,208.0,16.47,12.57,47.59359,-54.27349
2022-09-25 00:24:00+00:00,204.0,16.77,200.0,19.73,12.57,47.59359,-54.27349
2022-09-25 00:34:00+00:00,208.0,14.44,207.0,16.54,12.57,47.59359,-54.27349
2022-09-25 00:44:00+00:00,207.0,14.82,207.0,17.26,12.57,47.59359,-54.27349
2022-09-25 00:54:00+00:00,209.0,14.85,208.0,16.88,12.57,47.59359,-54.27349
2022-09-25 01:04:00+00:00,207.0,14.4,207.0,17.07,12.57,47.59359,-54.27349
2022-09-25 01:14:00+00:00,209.0,15.47,211.0,18.89,12.49,47.59359,-54.27349
2022-09-25 01:24:00+00:00,208.0,14.52,206.0,17.01,12.49,47.59359,-54.27349
2022-09-25 01:34:00+00:00,210.0,16.72,207.0,18.93,12.49,47.59359,-54.27349
2022-09-25 01:44:00+00:00,210.0,14.72,207.0,16.26,12.49,47.59359,-54.27349
2022-09-25 01:54:00+00:00,210.0,15.53,204.0,18.26,12.49,47.59359,-54.27349
2022-09-25 02:04:00+00:00,210.0,15.61,207.0,18.79,12.49,47.59359,-54.27349
2022-09-25 02:14:00+00:00,212.0,14.89,208.0,18.06,12.49,47.59359,-54.27349
2022-09-25 02:24:00+00:00,212.0,14.99,208.0,17.08,12.49,47.59359,-54.27349
2022-09-25 02:34:00+00:00,214.0,14.05,210.0,16.92,12.49,47.59359,-54.27349
2022-09-25 02:44:00+00:00,214.0,14.3,213.0,16.61,12.49,47.59359,-54.27349
2022-09-25 02:54:00+00:00,210.0,16.05,215.0,18.56,12.49,47.59359,-54.27349
2022-09-25 03:04:00+00:00,211.0,16.5,210.0,19.28,12.49,47.59359,-54.27349
2022-09-25 03:14:01+00:00,213.0,15.34,216.0,18.49,12.49,47.59359,-54.27349
2022-09-25 03:24:01+00:00,212.0,15.73,208.0,17.64,12.49,47.59359,-54.27349
2022-09-25 03:34:01+00:00,212.0,15.31,213.0,16.95,12.49,47.59359,-54.27349
2022-09-25 03:44:01+00:00,215.0,14.26,208.0,16.13,12.49,47.59359,-54.27349
2022-09-25 03:54:01+00:00,213.0,15.35,210.0,19.01,12.49,47.59359,-54.27349
2022-09-25 04:04:01+00:00,215.0,13.8,212.0,15.22,12.49,47.59359,-54.27349
2022-09-25 04:14:01+00:00,223.0,13.41,224.0,15.69,12.49,47.59359,-54.27349
2022-09-25 04:24:01+00:00,222.0,12.36,226.0,14.11,12.49,47.59359,-54.27349
2022-09-25 04:34:01+00:00,215.0,14.39,212.0,17.1,12.49,47.59359,-54.27349
2022-09-25 04:44:01+00:00,214.0,14.88,214.0,16.72,12.49,47.59359,-54.27349
2022-09-25 04:54:01+00:00,217.0,16.61,225.0,18.76,12.49,47.59359,-54.27349
2022-09-25 05:04:01+00:00,221.0,12.77,223.0,15.61,12.49,47.59359,-54.27349
2022-09-25 05:14:01+00:00,224.0,12.44,227.0,15.02,12.49,47.59359,-54.27349
2022-09-25 05:24:01+00:00,225.0,11.87,228.0,13.22,12.49,47.59359,-54.27349
2022-09-25 05:34:01+00:00,220.0,14.73,217.0,18.15,12.49,47.59359,-54.27349
2022-09-25 05:44:01+00:00,225.0,14.78,218.0,17.18,12.49,47.59359,-54.27349
2022-09-25 05:54:01+00:00,222.0,13.3,224.0,15.86,12.49,47.59359,-54.27349
2022-09-25 06:04:01+00:00,223.0,12.79,222.0,14.76,12.49,47.59359,-54.27349
2022-09-25 06:14:01+00:00,217.0,13.87,211.0,16.04,12.41,47.59359,-54.27349
2022-09-25 06:24:01+00:00,219.0,14.71,229.0,19.37,12.41,47.59359,-54.27349
2022-09-25 06:34:01+00:00,222.0,12.08,220.0,14.28,12.41,47.59359,-54.27349
2022-09-25 06:44:01+00:00,226.0,13.49,231.0,16.61,12.41,47.59359,-54.27349
2022-09-25 06:54:01+00:00,223.0,12.3,224.0,13.82,12.41,47.59359,-54.27349
2022-09-25 07:04:01+00:00,222.0,12.29,224.0,14.38,12.41,47.59359,-54.27349
2022-09-25 07:14:00+00:00,220.0,13.05,225.0,14.77,12.41,47.59359,-54.27349
2022-09-25 07:24:00+00:00,221.0,12.73,228.0,14.08,12.41,47.59359,-54.27349
2022-09-25 07:34:00+00:00,217.0,13.1,215.0,14.74,12.41,47.59359,-54.27349
2022-09-25 07:44:00+00:00,216.0,14.87,217.0,16.51,12.41,47.59359,-54.27349
2022-09-25 07:54:00+00:00,216.0,14.17,215.0,17.0,12.41,47.59359,-54.27349
2022-09-25 08:04:00+00:00,215.0,15.01,211.0,17.5,12.41,47.59359,-54.27349
2022-09-25 08:14:01+00:00,215.0,14.61,212.0,17.02,12.41,47.59359,-54.27349
2022-09-25 08:24:01+00:00,213.0,15.4,216.0,18.02,12.41,47.59359,-54.27349
2022-09-25 08:34:01+00:00,218.0,13.6,214.0,15.87,12.41,47.59359,-54.27349
2022-09-25 08:44:01+00:00,217.0,13.53,215.0,15.68,12.41,47.59359,-54.27349
2022-09-25 08:54:01+00:00,213.0,15.45,214.0,17.07,12.41,47.59359,-54.27349
2022-09-25 09:04:01+00:00,214.0,14.58,214.0,16.13,12.41,47.59359,-54.27349
2022-09-25 09:14:01+00:00,217.0,14.49,215.0,16.91,12.33,47.59359,-54.27349
2022-09-25 09:24:01+00:00,218.0,13.55,212.0,16.14,12.33,47.59359,-54.27349
2022-09-25 09:34:01+00:00,222.0,12.66,220.0,14.7,12.33,47.59359,-54.27349
2022-09-25 09:44:01+00:00,220.0,13.0,219.0,16.55,12.33,47.59359,-54.27349
2022-09-25 09:54:01+00:00,221.0,12.82,223.0,14.74,12.33,47.59359,-54.27349
2022-09-25 10:04:01+00:00,215.0,14.46,215.0,16.42,12.33,47.59359,-54.27349
2022-09-25 10:14:01+00:00,225.0,11.99,221.0,14.3,12.33,47.59359,-54.27349
2022-09-25 10:24:01+00:00,221.0,12.45,216.0,14.12,12.33,47.59359,-54.27349
2022-09-25 10:34:01+00:00,219.0,12.71,215.0,14.93,12.33,47.59359,-54.27349
2022-09-25 10:44:01+00:00,228.0,11.31,222.0,13.69,12.33,47.59359,-54.27349
2022-09-25 10:54:01+00:00,220.0,13.62,221.0,15.67,12.33,47.59359,-54.27349
2022-09-25 11:04:01+00:00,221.0,14.06,226.0,16.93,12.33,47.59359,-54.27349
2022-09-25 11:14:00+00:00,225.0,12.46,223.0,14.52,13.44,47.59359,-54.27349
2022-09-25 11:24:00+00:00,220.0,13.61,221.0,15.48,13.44,47.59359,-54.27349
2022-09-25 11:34:00+00:00,221.0,13.34,225.0,15.02,13.44,47.59359,-54.27349
2022-09-25 11:44:00+00:00,226.0,13.19,226.0,15.33,13.44,47.59359,-54.27349
2022-09-25 11:54:00+00:00,226.0,13.65,235.0,16.37,13.44,47.59359,-54.27349
2022-09-25 12:04:00+00:00,221.0,13.55,222.0,15.32,13.44,47.59359,-54.27349
2022-09-25 12:14:01+00:00,222.0,13.69,218.0,17.29,13.53,47.59359,-54.27349
2022-09-25 12:24:01+00:00,219.0,12.92,219.0,14.38,13.53,47.59359,-54.27349
2022-09-25 12:34:01+00:00,220.0,15.95,224.0,18.23,13.53,47.59359,-54.27349
2022-09-25 12:44:01+00:00,222.0,12.4,228.0,14.09,13.53,47.59359,-54.27349
2022-09-25 12:54:01+00:00,225.0,13.48,231.0,16.51,13.53,47.59359,-54.27349
2022-09-25 13:04:01+00:00,221.0,12.74,225.0,14.69,13.53,47.59359,-54.27349
2022-09-25 13:14:00+00:00,225.0,12.14,226.0,13.92,13.84,47.59359,-54.27349
2022-09-25 13:24:00+00:00,219.0,13.28,213.0,16.55,13.84,47.59359,-54.27349
2022-09-25 13:34:00+00:00,222.0,12.94,216.0,15.61,13.84,47.59359,-54.27349
2022-09-25 13:44:00+00:00,218.0,13.61,214.0,15.76,13.84,47.59359,-54.27349
2022-09-25 13:54:00+00:00,220.0,12.6,220.0,14.05,13.84,47.59359,-54.27349
2022-09-25 14:04:00+00:00,221.0,12.43,214.0,15.18,13.84,47.59359,-54.27349
2022-09-25 14:14:00+00:00,219.0,13.21,213.0,15.32,13.44,47.59359,-54.27349
2022-09-25 14:24:00+00:00,220.0,13.19,216.0,14.87,13.44,47.59359,-54.27349
2022-09-25 14:34:00+00:00,225.0,13.18,222.0,15.97,13.44,47.59359,-54.27349
2022-09-25 14:44:00+00:00,223.0,12.04,221.0,13.7,13.44,47.59359,-54.27349
2022-09-25 14:54:00+00:00,226.0,10.83,226.0,12.35,13.44,47.59359,-54.27349
2022-09-25 15:04:00+00:00,224.0,11.1,220.0,12.32,13.44,47.59359,-54.27349
2022-09-25 15:14:00+00:00,228.0,11.13,229.0,13.09,13.84,47.59359,-54.27349
2022-09-25 15:24:00+00:00,263.0,11.09,264.0,12.47,13.84,47.59359,-54.27349
2022-09-25 15:34:00+00:00,257.0,11.96,252.0,12.92,13.84,47.59359,-54.27349
2022-09-25 15:44:00+00:00,247.0,10.77,242.0,13.45,13.84,47.59359,-54.27349
2022-09-25 15:54:00+00:00,233.0,10.82,235.0,12.21,13.84,47.59359,-54.27349
2022-09-25 16:04:00+00:00,235.0,9.66,238.0,12.28,13.84,47.59359,-54.27349
2022-09-25 16:14:00+00:00,236.0,7.84,233.0,9.95,13.92,47.59359,-54.27349
2022-09-25 16:24:00+00:00,233.0,8.89,238.0,10.8,13.92,47.59359,-54.27349
2022-09-25 16:34:00+00:00,230.0,10.07,232.0,12.13,13.92,47.59359,-54.27349
2022-09-25 16:44:00+00:00,253.0,10.29,255.0,11.18,13.92,47.59359,-54.27349
2022-09-25 16:54:00+00:00,233.0,10.11,240.0,11.36,13.92,47.59359,-54.27349
2022-09-25 17:04:00+00:00,233.0,10.41,241.0,11.96,13.92,47.59359,-54.27349
2022-09-25 17:14:00+00:00,235.0,10.18,236.0,12.22,14.0,47.59359,-54.27349
2022-09-25 17:24:00+00:00,236.0,9.74,243.0,11.19,14.0,47.59359,-54.27349
2022-09-25 17:34:00+00:00,236.0,10.82,235.0,12.22,14.0,47.59359,-54.27349
2022-09-25 17:44:00+00:00,234.0,10.76,233.0,11.97,14.0,47.59359,-54.27349
2022-09-25 17:54:00+00:00,225.0,11.2,229.0,12.8,14.0,47.59359,-54.27349
2022-09-25 18:04:00+00:00,226.0,11.44,226.0,13.49,14.0,47.59359,-54.27349
2022-09-25 18:14:00+00:00,221.0,12.25,226.0,13.79,14.0,47.59359,-54.27349
2022-09-25 18:24:00+00:00,226.0,11.3,230.0,12.98,14.0,47.59359,-54.27349
2022-09-25 18:34:00+00:00,227.0,11.34,224.0,13.83,14.0,47.59359,-54.27349
2022-09-25 18:44:00+00:00,224.0,11.02,227.0,13.36,14.0,47.59359,-54.27349
2022-09-25 18:54:00+00:00,226.0,10.35,226.0,12.21,14.0,47.59359,-54.27349
2022-09-25 19:04:00+00:00,224.0,11.25,222.0,13.34,14.0,47.59359,-54.27349
2022-09-25 19:14:01+00:00,233.0,9.79,238.0,11.19,13.68,47.59359,-54.27349
2022-09-25 19:24:01+00:00,228.0,10.16,225.0,11.26,13.68,47.59359,-54.27349
2022-09-25 19:34:01+00:00,229.0,10.21,232.0,12.4,13.68,47.59359,-54.27349
2022-09-25 19:44:01+00:00,247.0,10.67,251.0,11.9,13.68,47.59359,-54.27349
2022-09-25 19:54:01+00:00,258.0,11.5,257.0,12.52,13.68,47.59359,-54.27349
2022-09-25 20:04:01+00:00,252.0,9.88,255.0,11.76,13.68,47.59359,-54.27349
2022-09-25 20:14:00+00:00,250.0,11.87,250.0,13.25,13.68,47.59359,-54.27349
2022-09-25 20:24:00+00:00,255.0,11.0,255.0,12.35,13.68,47.59359,-54.27349
2022-09-25 20:34:00+00:00,251.0,13.53,252.0,18.31,13.68,47.59359,-54.27349
2022-09-25 20:44:00+00:00,255.0,13.79,256.0,18.02,13.68,47.59359,-54.27349
2022-09-25 20:54:00+00:00,254.0,12.75,253.0,15.78,13.68,47.59359,-54.27349
2022-09-25 21:04:00+00:00,261.0,12.73,264.0,16.31,13.68,47.59359,-54.27349
2022-09-25 21:14:00+00:00,250.0,11.25,254.0,12.88,13.29,47.59359,-54.27349
2022-09-25 21:24:00+00:00,251.0,9.63,253.0,11.51,13.29,47.59359,-54.27349
2022-09-25 21:34:00+00:00,245.0,10.06,245.0,11.08,13.29,47.59359,-54.27349
2022-09-25 21:44:00+00:00,243.0,10.31,242.0,11.42,13.29,47.59359,-54.27349
2022-09-25 21:54:00+00:00,235.0,9.49,234.0,11.31,13.29,47.59359,-54.27349
2022-09-25 22:04:00+00:00,239.0,9.28,244.0,11.2,13.29,47.59359,-54.27349
2022-09-25 22:14:01+00:00,239.0,9.4,240.0,10.86,12.73,47.59359,-54.27349
2022-09-25 22:24:01+00:00,238.0,9.97,238.0,11.6,12.73,47.59359,-54.27349
2022-09-25 22:34:01+00:00,237.0,9.97,240.0,11.39,12.73,47.59359,-54.27349
2022-09-25 22:44:01+00:00,233.0,10.09,233.0,11.32,12.73,47.59359,-54.27349
2022-09-25 22:54:01+00:00,238.0,10.39,243.0,11.57,12.73,47.59359,-54.27349
2022-09-25 23:04:01+00:00,232.0,10.45,233.0,12.03,12.73,47.59359,-54.27349
2022-09-25 23:14:00+00:00,235.0,10.38,241.0,11.69,12.57,47.59359,-54.27349
2022-09-25 23:24:00+00:00,230.0,10.6,232.0,12.36,12.57,47.59359,-54.27349
2022-09-25 23:34:00+00:00,232.0,10.37,224.0,12.26,12.57,47.59359,-54.27349
2022-09-25 23:44:00+00:00,231.0,10.29,241.0,11.67,12.57,47.59359,-54.27349
2022-09-25 23:54:00+00:00,229.0,10.41,226.0,11.51,12.57,47.59359,-54.27349
